Regional Weather Roundup
Issued by NWS

Home | Current Version | Previous Version | Text Only | Print | Product List | Glossary On
Versions: 1 2 3 4 5 6 7 8 9 10 11 12 13 14 15 16 17 18 19 20 21 22 23 24 25 26 27 28 29 30 31 32 33 34 35 36 37 38 39 40 41 42 43 44 45 46 47 48 49 50
000
ASUS42 KFFC 251903
RWRGA
WEATHER ROUNDUP FOR GEORGIA
NATIONAL WEATHER SERVICE PEACHTREE CITY GA
200 PM EST SAT FEB 25 2017

NOTE: "FAIR" INDICATES FEW OR NO CLOUDS BELOW 12,000 FEET WITH NO
SIGNIFICANT WEATHER AND/OR OBSTRUCTIONS TO VISIBILITY.

* = USE WITH CAUTION. THE STATIONS MARKED WITH AN ASTERISK MAY NOT
REPORT WEATHER SUCH AS PRECIPITATION, FOG, OR THUNDER AND ARE NOT
QUALITY CONTROLLED BY NWS.

THE REMARK "TC" DENOTES TEMPERATURE READING IN DEGREES CELSIUS.

GAZ001>058-252000-
NORTH GEORGIA

CITY           SKY/WX    TMP DP  RH WIND       PRES   REMARKS
ATLANTA        MOSUNNY   64  21  19 W16G30    29.87F
ATHENS         SUNNY     68  17  14 W17G28    29.81S
CHAMBLEE       SUNNY     62  20  19 W18G29    29.87S
PEACHTREE CITY SUNNY     64  22  20 W13G23    29.89F
ROME           SUNNY     59  27  29 W16G24    29.92F
WEST ATLANTA   SUNNY     63  23  21 W13G25    29.89S
GAINESVILLE    SUNNY     63  21  20 W16G30    29.84F
CARTERSVILLE   SUNNY     60  29  30 MISG      29.91F


CITY           SKY/WX    TMP DP  RH WIND       PRES   REMARKS
DALTON*        SUNNY     57  30  35 W8G17     29.92S
LAWRENCEVILLE* SUNNY     63  21  20 W20G32    29.85F
MARIETTA       MOSUNNY   62  22  21 W20G28    29.88S
KENNESAW*      SUNNY     61  25  25 W23G31    29.89S
CANTON*        SUNNY     59  -4   7 W17G28    29.88F
$$

GAZ059>098-102>109-252000-
CENTRAL GEORGIA

CITY           SKY/WX    TMP DP  RH WIND       PRES   REMARKS
AUGUSTA-BUSH   SUNNY     80  40  23 W20G28    29.73F
AUGUSTA-DANIEL SUNNY     76  45  33 W9G21     29.76F
COLUMBUS       SUNNY     70  25  18 NW14G24   29.89F
MACON          SUNNY     74  26  16 NW17G29   29.84F
ROBINS AFB     SUNNY     75  26  16 W15G23    29.83F


CITY           SKY/WX    TMP DP  RH WIND       PRES   REMARKS
LAGRANGE*      SUNNY     67  33  27 NW14G23   29.90F
SYLVANIA*      MOSUNNY  N/A N/A N/A W6        29.79F
MILLEDGEVILLE* SUNNY     73  36  25 NW14G21   29.82F
$$

GAZ099>101-110>166-252000-
SOUTH GEORGIA

CITY           SKY/WX    TMP DP  RH WIND       PRES   REMARKS
SAVANNAH       PTSUNNY   78  57  48 W18       29.79F
VALDOSTA       MOSUNNY   79  61  53 VRB7      29.85F
ALMA           PTSUNNY   78  60  53 SW14G21   29.82F
ST SIMONS      MOSUNNY   77  58  51 W13G28    29.83S
ALBANY         SUNNY     75  33  21 NW14G24   29.90S
HUNTER AFB     SUNNY     79  64  61 W16G23    29.77F
MOODY AFB      MOSUNNY   78  57  48 W16       29.83F
BRUNSWICK      MOSUNNY   79  63  57 SW17G23   29.85R


CITY           SKY/WX    TMP DP  RH WIND       PRES   REMARKS
BAINBRIDGE*    SUNNY     77  41  27 W12G18    29.90S
MOULTRIE*      SUNNY     77  46  33 NW10G22   29.88F
VIDALIA*       MOSUNNY   79  63  57 W14G20    29.81F
WAYCROSS*      MOSUNNY   80  64  58 W13G18    29.83F
DOUGLAS*       PTSUNNY   73  55  53 W14       29.85F
$$



USA.gov is the U.S. government's official web portal to all federal, state and local government web resources and services.